This demonstration page uses our WeatherBlox Daily Observations layout. Learn more.

39.92423, -83.80882

Hourly Observations for April 23, 2017

Temp ( °F °C ) Dew Point ( °F °C ) Humidity (%) Winds ( mph kmh ) Pressure ( in mb ) Visibility ( mi km ) Precip ( " mm )
12:56 am 00:56 Clear 39 3.9 34 1.1 82 82 NE 9 15 30.11 1020 10 16.0934 0 0
1:56 am 01:56 Clear 38 3.3 34 1.1 86 86 NE 10 17 30.1 1019 10 16.0934 0 0
2:56 am 02:56 Clear 40 4.4 35 1.7 83 83 NE 12 19 30.08 1019 10 16.0934 0 0
3:56 am 03:56 Clear 41 5 35 1.7 79 79 ENE 13 20 30.09 1019 10 16.0934 0 0
4:56 am 04:56 Clear 40 4.4 35 1.7 83 83 ENE 12 19 30.09 1019 10 16.0934 0 0
5:56 am 05:56 Clear 40 4.4 34 1.1 79 79 NE 12 19 30.07 1018 10 16.0934 0 0
6:56 am 06:56 Sunny 41 5 34 1.1 76 76 ENE 14 22 30.07 1018 10 16.0934 0 0
7:56 am 07:56 Sunny 44 6.7 34 1.1 68 68 ENE 16 26 30.08 1019 10 16.0934 0 0
8:56 am 08:56 Sunny 48 8.9 35 1.7 61 61 ENE 20 31 30.07 1018 10 16.0934 0 0
9:56 am 09:56 Sunny 53 11.7 36 2.2 52 52 E 15 24 30.07 1018 10 16.0934 0 0
10:56 am 10:56 Sunny 57 13.9 37 2.8 47 47 ENE 15 24 30.09 1019 10 16.0934 0 0
11:56 am 11:56 Sunny 60 15.6 36 2.2 41 41 E 13 20 30.08 1019 10 16.0934 0 0
12:56 pm 12:56 Sunny 64 17.8 33 0.6 32 32 ENE 16 26 30.03 1017 10 16.0934 0 0
1:56 pm 13:56 Sunny 65 18.3 33 0.6 31 31 NE 16 26 30.03 1017 10 16.0934 0 0
2:56 pm 14:56 Sunny 66 18.9 32 0 28 28 ENE 14 22 30.02 1017 10 16.0934 0 0
3:56 pm 15:56 Sunny 66 18.9 33 0.6 29 29 NE 14 22 29.98 1015 10 16.0934 0 0
4:56 pm 16:56 Sunny 66 18.9 32 0 28 28 E 14 22 29.98 1015 10 16.0934 0 0
5:56 pm 17:56 Sunny 66 18.9 31 -0.6 27 27 ENE 14 22 29.98 1015 10 16.0934 0 0
6:56 pm 18:56 Sunny 64 17.8 33 0.6 32 32 NE 14 22 29.98 1015 10 16.0934 0 0
7:56 pm 19:56 Sunny 62 16.7 33 0.6 34 34 NE 10 17 29.99 1016 10 16.0934 0 0
8:56 pm 20:56 Clear 59 15 33 0.6 38 38 NE 10 17 30 1016 10 16.0934 0 0
9:56 pm 21:56 Clear 52 11.1 34 1.1 50 50 ENE 7 11 30.02 1017 10 16.0934 0 0
10:56 pm 22:56 Clear 53 11.7 35 1.7 51 51 NE 9 15 30.01 1016 10 16.0934 0 0
11:56 pm 23:56 Clear 52 11.1 39 3.9 61 61 ENE 10 17 30.01 1016 10 16.0934 0 0

Powered by AerisWeather